Wind_Speed
8 9 11 11 7 5 7 9 5 5 4 3 5 9 9 10 14 13 7 5 7 9 13 15 14 15 15 12 11 11 12 12 12 14 15 14 15 15 14 17 17 16 18 20 21 21 21 21 19 16 13 13 13 12 11 10 9 8 7 5 3 2 3 5 7 9 12 15 17 16 10 6 5 6 8 11 13 15 16 16 17 17 16 17 18 18
8 10 12 9 5 4 7 13 11 6 6 7 9 10 10 11 11 10 9 7 7 10 13 14 14 14 14 14 12 12 13 14 14 15 15 15 15 15 15 15 15 16 15 16 21 22 23 23 19 17 15 15 16 14 13 12 11 10 10 7 5 4 3 4 6 8 10 13 17 18 13 7 6 6 8 8 9 10 11 12 13 14 14 15 16 16
10 13 11 7 10 12 10 12 11 8 8 10 12 12 12 13 10 6 8 8 7 10 13 12 14 15 16 16 14 13 14 14 15 15 15 16 16 15 15 14 15 15 11 15 20 18 19 21 19 19 18 18 18 16 16 15 13 13 12 9 7 6 5 5 6 7 9 11 15 17 14 8 6 6 8 8 7 8 8 9 9 10 10 11 11 12
10 9 9 9 12 12 9 10 9 9 11 12 13 14 13 13 13 8 6 8 8 10 13 11 11 13 14 15 15 14 13 12 13 14 15 17 17 16 15 14 15 16 16 19 21 17 18 20 21 22 20 20 20 20 20 18 17 15 13 10 8 8 7 7 8 7 9 11 13 16 14 8 5 6 7 7 7 7 7 7 7 7 7 7 8 8
10 2 6 7 8 7 7 9 8 10 12 13 14 15 13 12 13 10 5 7 8 11 13 12 12 14 16 17 18 16 14 13 13 15 17 20 21 19 18 17 16 17 18 20 21 22 22 22 23 23 22 22 22 23 23 22 20 17 15 12 10 10 9 10 10 8 9 10 12 15 13 6 4 5 6 6 6 6 5 5 5 5 5 5 5 5
10 7 9 8 7 8 9 10 10 11 13 14 15 15 15 12 10 10 7 7 10 12 12 13 12 15 18 20 19 16 14 14 13 14 16 18 19 20 19 19 20 20 21 21 22 24 25 25 25 24 24 25 25 25 25 24 22 19 16 14 13 12 11 12 12 10 9 10 12 13 12 6 2 3 5 4 4 4 4 3 3 3 3 3 3 3
6 5 8 8 8 10 10 12 12 11 13 14 12 12 12 12 10 11 11 11 13 11 8 11 11 12 13 14 14 14 13 14 13 13 15 15 16 16 15 15 16 16 19 22 24 24 24 26 28 28 27 28 28 28 27 26 25 22 19 16 15 14 13 13 14 12 10 10 11 12 12 7 3 3 4 4 3 3 3 3 3 3 3 3 4 3
7 4 5 8 9 10 11 13 12 11 13 11 6 7 10 12 12 12 13 14 15 12 7 10 13 14 13 11 10 12 13 13 13 13 13 14 14 15 14 12 12 14 17 20 23 24 24 26 29 30 31 31 31 31 30 29 27 26 23 19 17 16 14 15 16 13 10 9 10 11 11 8 4 3 4 4 5 5 5 5 5 5 5 5 5 5
7 7 7 9 11 11 13 13 10 11 13 9 4 7 10 11 13 12 14 15 14 13 13 14 13 13 15 12 10 12 14 14 14 14 13 12 12 12 13 14 15 19 20 19 21 23 23 23 24 27 30 31 32 33 32 31 30 29 27 22 20 18 16 17 17 13 8 7 9 10 10 8 5 4 4 5 6 6 7 7 7 7 7 6 6 6
6 8 8 10 11 12 13 11 7 9 11 9 6 9 11 11 13 13 13 15 13 11 14 15 13 11 12 12 11 12 14 16 15 12 10 10 10 9 13 17 17 18 20 20 22 23 24 25 25 26 28 30 31 32 32 32 32 32 31 27 22 20 19 18 17 12 9 8 9 9 8 7 6 4 4 6 6 7 7 6 6 6 5 4 4 3
6 8 9 10 12 12 11 10 9 10 11 9 8 11 12 12 13 13 13 15 12 10 14 16 14 11 9 11 13 11 9 9 11 12 9 8 6 6 10 14 15 17 20 21 21 23 25 26 28 29 31 32 32 32 32 33 33 33 33 31 26 23 20 19 16 12 10 8 8 8 7 7 6 4 4 6 6 6 5 4 3 2 1 0 1 0
7 10 11 10 11 11 11 12 12 13 13 11 11 12 12 12 12 12 14 14 10 9 13 14 13 12 11 11 10 8 7 6 10 11 9 7 5 7 9 10 12 16 18 19 20 22 23 24 25 28 30 33 35 35 35 33 32 33 32 32 29 25 21 18 15 13 11 9 8 8 7 6 6 4 4 4 4 3 3 2 2 2 2 3 4 3
11 13 12 9 9 10 11 13 12 12 13 13 14 13 11 9 9 9 9 9 9 9 8 7 9 11 12 12 7 7 9 9 9 9 9 9 8 9 10 10 10 12 13 15 18 20 23 23 25 26 29 32 34 35 36 34 33 32 32 32 31 26 22 19 16 14 13 11 10 10 8 7 6 3 3 3 2 2 2 2 3 3 4 5 6 6
11 12 11 10 10 10 11 13 12 11 12 14 15 14 11 7 6 7 7 7 9 9 5 5 6 9 12 10 6 9 9 8 9 10 11 12 12 11 10 10 9 10 11 13 15 18 22 24 26 28 30 32 32 32 34 33 31 32 33 32 29 26 24 20 18 16 14 14 12 12 11 9 7 4 2 2 2 1 1 1 2 2 4 5 6 7
9 8 10 9 7 8 10 13 12 8 10 15 15 14 14 11 8 7 6 6 7 4 5 6 5 8 11 6 8 10 9 8 8 11 12 13 12 11 10 9 8 9 9 10 13 15 19 22 24 26 26 28 29 29 30 31 30 31 33 31 29 27 25 21 19 18 16 16 15 14 13 11 8 6 3 2 2 3 3 3 2 1 1 3 5 6
10 8 8 9 6 6 8 10 11 10 11 12 13 16 16 13 11 11 10 9 9 7 5 8 8 8 6 4 8 9 9 9 8 10 12 10 10 9 8 8 9 8 7 7 9 11 13 17 20 20 20 22 24 25 27 29 29 30 31 31 30 28 26 23 21 19 18 17 17 15 15 13 11 8 5 5 5 5 5 6 5 4 2 1 1 3
11 8 5 7 8 9 8 8 8 11 11 8 10 15 14 12 11 13 11 8 8 9 9 12 13 11 7 7 11 10 9 10 9 9 10 9 9 9 8 9 9 8 6 6 7 9 10 11 14 15 17 18 20 22 26 28 30 30 31 31 32 31 28 25 22 21 20 19 19 17 17 15 13 11 9 9 9 8 9 9 8 7 6 4 3 2
10 10 7 7 10 10 9 10 10 12 13 12 10 10 10 11 11 12 10 6 7 8 9 13 15 14 11 9 12 14 12 12 11 10 10 10 9 8 8 9 9 8 6 6 7 8 9 9 10 10 13 16 19 21 25 29 31 30 30 33 35 34 31 27 23 22 22 21 20 19 19 18 16 14 13 13 13 12 12 11 11 10 9 8 6 5
7 12 12 11 11 9 8 11 14 14 15 16 15 10 9 10 10 11 10 7 8 7 7 11 14 14 14 10 11 15 15 13 13 12 11 9 8 8 8 7 7 7 6 7 9 9 10 10 8 7 7 9 15 21 25 28 31 30 31 35 36 34 32 30 27 26 25 23 22 21 21 21 21 19 17 17 16 15 14 14 13 13 13 12 10 8
6 10 13 10 9 8 9 12 15 16 15 16 17 16 14 14 12 12 11 9 10 8 7 10 10 10 11 10 10 14 15 15 15 13 11 10 9 8 7 6 6 5 6 8 9 9 9 10 10 8 5 4 7 14 21 25 28 31 35 36 35 34 34 33 31 29 28 26 25 24 24 26 26 23 20 19 18 17 17 16 16 16 16 15 14 12
7 10 13 11 9 10 11 12 14 13 12 13 16 16 17 16 14 14 14 15 14 9 7 7 8 9 8 5 7 10 13 15 15 13 12 11 11 10 7 6 5 5 6 8 9 10 10 9 10 9 8 9 9 10 14 18 22 26 31 35 35 34 34 33 33 32 30 28 27 27 28 30 29 26 24 22 20 19 19 18 17 17 18 18 17 16
10 10 13 14 14 15 13 10 10 11 10 11 12 13 13 14 14 13 12 15 16 14 11 8 8 10 6 4 6 8 11 14 14 13 12 12 13 12 8 7 6 5 6 8 10 11 11 10 9 8 8 12 17 17 16 16 16 16 19 26 32 35 35 35 35 34 32 32 32 33 33 33 31 29 27 25 23 22 21 21 20 18 18 20 20 19
12 10 12 15 16 18 17 12 12 13 13 15 17 16 15 14 15 14 11 12 14 15 16 14 11 8 4 3 7 9 10 12 14 13 13 14 14 12 9 8 8 8 9 9 11 13 13 12 11 10 9 10 15 20 22 23 24 23 20 19 22 29 33 36 37 36 35 35 36 37 37 35 33 31 31 30 29 28 26 24 23 22 20 20 21 22
14 11 14 17 17 20 21 18 17 15 15 19 22 20 19 19 19 19 17 16 16 16 15 13 10 8 5 4 5 7 9 12 13 14 15 15 13 11 11 11 11 12 12 12 13 14 16 16 13 13 12 11 13 15 19 24 28 32 32 28 26 25 26 29 32 32 34 36 37 37 36 34 34 34 34 34 33 32 30 27 26 26 24 22 21 22
10 10 12 15 13 13 15 16 17 16 15 17 20 21 21 20 19 19 20 18 18 20 18 14 12 9 5 4 5 7 9 11 13 14 15 15 13 13 13 13 13 14 14 14 16 17 18 19 17 14 12 12 13 14 15 18 21 26 32 33 33 33 32 33 31 29 29 30 31 32 32 31 32 35 37 38 37 35 32 30 30 30 29 26 25 26
9 10 12 12 10 9 9 9 9 9 10 12 15 18 20 18 16 17 18 17 18 21 21 19 18 11 3 4 6 7 9 11 12 13 14 14 15 15 15 15 15 16 16 17 18 19 20 20 19 17 13 11 11 11 12 13 15 18 21 24 27 30 33 35 36 34 32 30 28 30 33 34 33 32 33 36 35 32 29 29 30 30 30 30 29 30
11 13 15 16 16 16 16 16 13 12 13 13 14 15 16 15 15 15 17 20 20 21 23 23 21 16 11 10 10 9 11 12 12 12 12 13 15 17 16 17 18 19 19 20 21 22 23 22 21 19 17 14 13 11 11 11 12 12 13 14 15 18 22 25 28 32 35 35 34 35 38 38 34 27 24 24 23 22 21 22 24 25 28 32 32 31
12 15 17 17 21 22 22 23 23 21 21 20 19 19 18 18 19 19 20 22 21 20 22 23 19 18 18 15 13 12 12 13 13 13 12 13 16 19 19 19 21 21 21 22 23 24 26 25 23 21 19 18 17 16 15 14 13 13 13 13 12 13 14 16 18 23 28 32 33 33 32 31 27 23 20 18 17 18 18 18 18 21 25 30 32 31
12 16 17 17 20 22 21 23 23 23 25 24 23 24 24 24 25 25 25 25 23 22 25 23 20 20 18 14 13 13 12 14 15 15 14 15 16 19 21 22 22 22 21 22 22 23 25 26 24 22 21 20 20 20 20 19 18 18 17 17 16 15 15 15 16 18 21 24 26 27 28 29 27 26 26 25 25 27 26 23 21 23 26 28 30 31
11 15 16 16 19 21 21 22 22 23 25 26 27 27 26 27 27 28 29 28 27 28 30 28 27 29 24 17 15 16 14 13 14 14 16 16 16 17 20 22 22 21 20 23 27 26 24 25 25 23 23 22 22 22 22 22 22 22 21 20 20 19 18 18 17 17 18 19 20 22 24 25 25 25 25 26 26 28 29 28 26 26 28 30 30 30
11 13 13 14 19 21 20 21 22 24 25 27 28 28 28 29 29 29 30 30 29 30 28 27 30 32 28 22 21 22 21 21 20 19 19 19 19 19 20 21 21 20 19 24 30 29 26 26 26 25 25 23 23 23 23 23 23 24 24 23 22 22 21 20 20 20 21 21 21 21 22 23 23 23 23 24 24 25 26 27 28 29 31 33 34 32
12 13 14 15 20 22 20 19 21 23 26 29 30 29 29 29 29 30 29 28 28 28 27 26 29 28 23 21 22 22 23 25 25 23 22 23 23 23 22 20 19 19 19 24 30 30 27 28 28 26 25 24 25 25 25 24 24 24 24 24 24 24 23 22 22 22 22 22 23 24 24 25 25 25 26 26 26 28 29 30 31 33 34 36 37 36
13 15 17 16 20 22 20 18 20 21 21 23 25 26 27 29 30 31 31 30 29 28 28 29 29 26 21 18 18 18 19 21 23 22 22 22 21 21 21 20 20 20 21 24 29 30 29 30 29 27 25 25 26 27 26 25 25 24 24 23 23 24 24 23 23 23 22 22 23 24 24 26 27 27 28 28 29 30 31 32 33 34 35 35 36 38
15 17 18 17 20 22 19 18 19 18 16 16 16 16 17 19 23 25 27 27 26 26 29 31 30 27 23 20 19 18 18 17 17 17 18 19 18 19 21 21 21 21 22 24 28 30 31 32 31 29 27 26 28 28 27 27 26 25 25 24 24 24 23 23 23 23 23 23 23 24 25 26 27 28 28 29 29 31 31 32 33 33 33 34 35 37
17 18 19 18 20 23 21 18 16 15 16 17 15 12 11 13 15 18 20 21 20 23 28 31 30 26 22 21 20 18 17 17 16 15 17 20 23 25 25 21 21 22 22 22 28 31 32 32 31 30 29 28 28 28 27 29 28 27 27 26 25 24 24 24 24 23 24 24 24 25 26 26 27 27 27 27 28 29 29 30 31 31 31 31 33 34
18 18 19 19 20 21 20 17 15 14 16 16 13 11 12 13 13 15 18 18 19 21 24 24 23 19 16 17 17 16 16 16 16 14 14 19 26 29 24 18 19 22 21 21 28 32 33 32 30 31 31 30 29 29 29 30 29 28 27 26 25 25 24 25 25 25 26 25 25 26 27 27 27 27 27 27 27 27 27 28 29 29 29 29 30 31
18 18 18 19 19 19 20 20 19 20 19 16 14 13 12 13 13 14 16 17 17 19 20 18 15 14 14 14 14 14 13 13 13 13 11 13 20 24 22 20 21 23 23 24 28 30 31 32 32 33 33 31 30 30 31 31 30 29 28 26 25 25 26 27 28 28 29 29 29 29 28 28 27 27 27 27 27 27 28 28 29 30 30 30 30 31
17 17 18 19 18 17 18 18 16 15 14 12 12 13 12 13 13 13 14 16 15 15 15 14 13 13 13 14 13 12 11 12 12 11 11 8 7 11 17 22 25 27 25 21 19 17 20 27 32 33 33 32 31 31 32 32 31 30 29 27 27 27 28 29 30 30 31 31 32 32 30 29 28 27 26 25 25 26 27 28 29 30 30 31 32 32
15 16 16 18 18 17 17 16 13 12 12 8 6 7 9 11 11 10 12 14 15 14 11 8 8 10 11 11 11 10 11 14 11 11 16 13 4 4 9 14 20 24 23 18 14 11 16 26 31 31 31 32 32 32 32 32 32 31 30 29 29 30 31 32 32 32 32 32 34 34 33 31 29 28 27 26 26 27 27 28 29 29 30 31 32 32
14 15 16 18 19 19 18 18 17 15 14 11 8 5 5 7 9 8 8 8 11 13 10 7 7 9 9 10 10 11 12 14 11 11 18 18 10 7 8 8 11 15 16 15 13 13 19 29 31 29 30 32 32 33 33 33 33 33 32 32 32 33 34 35 35 34 34 34 35 35 34 34 33 32 31 31 31 31 31 31 30 31 31 32 32 32
11 12 14 17 18 18 18 19 19 16 13 14 13 9 6 7 9 10 10 10 10 9 9 9 10 11 11 11 12 13 14 15 13 12 15 15 12 10 10 10 11 13 14 15 16 16 22 29 31 31 32 33 33 34 35 35 35 35 35 34 35 37 38 39 38 36 36 36 37 37 36 36 36 36 36 35 35 35 34 33 32 32 32 32 32 31
10 10 12 15 16 17 18 20 20 16 13 14 13 10 8 9 10 12 13 12 11 10 11 12 12 13 13 13 14 14 15 16 17 16 15 14 13 12 13 14 14 15 15 16 20 25 28 31 33 33 34 34 35 35 35 36 37 37 37 38 39 40 41 41 40 39 39 39 40 40 40 40 39 38 38 37 37 36 35 35 34 34 33 32 32 30
10 10 12 14 15 17 18 18 15 12 11 11 10 8 6 8 11 13 14 12 12 13 14 15 15 14 15 16 17 18 18 18 19 20 21 22 20 18 17 18 18 19 21 22 25 29 31 33 35 36 36 36 37 37 38 39 40 40 41 42 43 43 43 42 42 42 42 43 44 44 44 43 41 39 38 37 37 36 36 36 36 35 34 32 31 30
11 12 13 13 11 12 15 15 10 9 10 12 12 10 10 11 13 15 17 17 16 16 17 17 17 17 16 17 19 20 21 23 23 22 22 24 25 23 22 21 21 23 28 32 33 34 36 37 38 37 37 38 38 39 40 42 43 44 45 45 45 45 45 44 44 44 45 45 45 45 45 44 42 40 39 39 39 39 38 37 38 37 35 33 31 30
10 11 12 13 11 10 14 16 14 16 17 17 16 16 16 16 16 16 19 20 20 20 20 20 19 19 19 19 20 22 23 24 25 24 23 24 25 26 25 24 24 25 27 30 31 33 35 38 39 40 40 40 39 40 41 42 43 45 45 45 46 46 46 46 46 46 46 46 45 44 44 43 42 42 42 43 43 42 40 39 38 36 34 33 32 31
9 10 11 12 13 14 16 18 18 19 19 17 16 17 18 19 19 19 21 22 22 22 21 20 20 21 21 22 24 25 26 26 27 28 28 27 28 29 28 28 29 28 27 28 28 28 28 31 37 42 43 43 43 43 44 44 45 46 46 45 45 46 47 47 47 47 48 47 47 46 45 44 44 44 44 45 44 42 40 39 37 35 34 33 32 31
11 13 12 11 13 16 17 16 16 17 18 18 19 20 20 20 20 20 20 21 21 20 20 20 22 23 23 24 25 27 28 28 29 31 31 31 32 31 30 31 31 30 29 29 29 29 28 29 33 39 41 42 44 45 45 45 46 46 47 48 48 47 47 48 47 47 48 47 47 46 45 44 44 43 42 43 41 38 36 37 36 35 34 33 32 32
10 12 12 11 14 17 18 17 17 19 20 19 19 20 19 19 19 19 20 20 20 20 21 21 23 24 24 25 26 28 29 29 29 30 31 31 32 32 31 31 31 31 30 29 28 29 31 32 33 36 37 37 39 41 41 42 41 40 40 43 44 43 44 46 47 46 45 44 44 42 41 41 40 38 36 37 36 34 34 35 34 33 32 31 32 33
11 12 12 12 15 17 17 16 17 18 18 17 16 18 18 19 20 21 22 22 23 23 24 24 25 26 26 27 27 29 31 32 32 32 32 31 32 32 32 31 30 30 30 30 30 32 35 36 37 39 39 39 39 40 40 40 38 35 33 33 34 34 36 40 43 42 40 39 38 37 36 35 34 32 32 33 33 34 33 33 32 32 31 31 32 31
11 12 12 14 16 17 16 15 16 18 19 19 18 19 21 22 24 25 25 26 27 27 27 28 29 29 30 30 31 33 36 37 37 36 36 35 34 33 31 31 31 32 33 34 36 38 38 39 39 40 41 41 41 40 41 42 41 39 35 32 30 29 30 33 35 36 35 34 33 32 31 30 29 30 31 32 33 32 31 31 31 31 29 29 29 27
8 10 12 13 16 17 17 18 19 22 23 23 22 23 26 28 29 30 29 29 29 29 28 29 30 30 31 32 33 35 37 38 38 38 38 36 35 34 34 33 34 36 37 37 38 39 39 39 39 39 40 40 40 40 41 41 40 39 36 34 34 33 32 32 33 33 33 32 31 30 29 27 28 30 31 31 31 31 30 29 29 27 26 26 25 24
Wind_Direction
221 229 231 232 225 199 198 221 273 328 306 265 234 244 242 222 219 213 176 173 212 227 230 220 222 238 236 230 225 222 224 222 218 214 215 217 220 225 222 225 236 235 226 212 206 216 216 203 200 209 218 223 226 226 225 230 231 234 240 236 235 259 306 323 330 344 349 348 347 348 334 287 268 258 244 240 240 239 240 240 244 249 251 252 254 257
227 236 238 237 232 216 213 225 244 271 263 252 248 247 242 234 232 222 199 187 208 233 240 226 227 243 238 229 232 229 228 229 222 217 217 215 216 219 220 222 226 238 234 207 207 215 209 201 208 225 232 234 237 236 238 241 239 241 243 237 234 244 265 294 315 334 343 347 344 343 338 304 276 268 258 249 245 244 243 243 245 250 253 252 254 257
234 241 233 223 238 240 239 238 243 256 253 244 243 246 241 233 229 201 182 192 211 234 243 234 228 239 239 232 232 228 229 231 224 219 216 213 214 213 215 216 218 230 224 209 222 223 208 210 225 234 234 240 244 244 247 249 247 248 246 240 235 240 256 272 294 320 332 342 340 339 337 312 279 272 268 258 248 244 241 242 243 245 249 251 254 257
241 240 196 197 240 247 248 247 243 243 244 240 238 241 241 233 231 222 196 210 229 238 249 256 243 239 243 234 225 225 229 225 218 218 214 211 213 210 213 215 216 219 214 221 230 222 214 221 228 234 236 240 245 247 250 251 253 251 245 243 237 239 252 263 276 301 320 334 336 334 334 314 277 276 274 260 249 242 238 238 237 240 244 248 252 255
256 235 166 207 248 245 240 238 237 242 241 235 235 241 245 241 242 247 222 203 230 242 244 256 256 244 242 234 226 224 222 221 222 221 217 213 211 208 209 211 214 215 215 226 228 214 213 219 224 232 237 240 244 247 250 252 253 251 244 239 236 240 250 258 268 286 310 328 331 331 335 322 281 289 280 261 248 238 235 233 230 235 238 243 248 252
245 220 225 249 252 236 239 237 234 240 246 241 232 236 250 254 248 244 225 208 237 245 227 228 246 250 242 234 228 221 216 222 222 216 215 212 208 208 210 211 214 213 211 219 224 218 214 216 221 226 231 237 241 244 247 250 249 246 241 236 236 242 249 256 264 276 300 323 326 329 337 333 311 310 295 279 257 232 224 217 216 231 238 251 258 256
237 214 232 238 233 232 236 241 236 232 248 253 233 224 242 252 244 237 234 233 246 252 218 212 242 262 249 232 223 216 212 217 212 207 211 209 206 209 212 214 217 218 217 217 220 221 218 218 222 225 228 232 237 241 243 245 246 243 238 235 237 242 249 258 263 270 289 312 319 326 335 337 345 335 311 299 278 250 239 237 240 256 262 271 274 272
216 215 227 216 223 231 235 242 233 224 244 256 231 214 233 242 237 233 236 239 248 257 237 219 240 260 258 239 217 207 208 209 206 207 210 207 207 211 211 213 216 221 226 224 221 224 227 225 224 226 229 231 234 238 239 241 243 241 237 234 236 241 247 256 262 269 283 301 310 319 329 332 338 338 319 301 283 267 259 260 268 277 280 281 275 272
204 220 226 218 222 229 237 240 218 213 241 258 255 234 239 242 233 231 238 241 248 255 247 234 233 248 254 240 209 198 209 218 216 210 207 207 209 211 213 217 223 227 231 233 229 230 234 234 231 230 232 233 235 236 236 238 239 238 237 235 234 239 244 252 261 267 268 281 298 307 321 329 332 333 317 299 282 270 268 271 276 281 284 284 276 268
211 216 218 220 225 230 241 246 216 209 237 256 265 245 242 244 234 231 238 245 251 251 250 246 235 240 252 241 215 203 221 235 226 207 198 203 205 214 223 224 229 234 234 236 236 236 237 238 240 239 238 237 237 237 237 236 235 234 235 235 233 235 242 250 258 259 248 257 282 293 311 327 330 332 320 305 287 274 274 277 278 279 278 278 276 268
220 215 217 220 227 235 248 255 236 228 243 257 259 244 239 240 237 237 241 248 254 244 244 246 235 234 250 248 229 210 216 229 205 188 183 187 192 215 228 227 230 234 235 236 237 239 241 241 243 245 246 243 241 240 239 237 234 232 232 234 234 233 239 248 250 241 234 242 263 277 295 316 325 330 323 312 292 274 270 270 266 263 256 205 100 51
227 222 222 223 229 234 247 253 240 233 241 248 244 237 235 234 233 238 239 240 248 248 247 243 230 228 239 253 243 200 183 179 170 176 182 178 189 206 207 211 220 227 231 235 237 239 242 243 245 248 251 251 248 244 243 240 236 233 231 230 232 232 232 235 233 225 225 232 248 263 271 293 313 332 337 325 300 259 225 195 174 146 123 107 101 95
235 232 222 221 230 232 239 240 230 224 230 235 235 234 236 232 226 236 238 230 239 251 250 234 219 224 244 258 248 176 174 181 179 186 190 193 209 210 203 207 218 229 235 239 242 245 245 246 248 250 254 256 255 248 244 241 237 234 229 227 228 227 222 222 220 219 224 226 235 247 253 269 290 314 350 349 319 243 195 170 152 135 117 108 100 94
236 226 212 220 232 230 232 231 220 214 225 232 232 232 235 237 233 240 240 234 240 239 231 229 224 237 254 253 204 169 167 173 190 201 205 212 219 218 216 223 233 245 251 252 253 254 253 254 254 256 259 258 253 245 239 237 236 233 228 225 223 220 216 215 215 218 221 222 227 235 243 255 266 278 327 9 353 305 257 201 155 134 113 107 100 93
255 230 206 215 222 215 226 234 235 237 237 238 238 237 240 246 250 252 257 261 266 250 207 202 214 246 252 220 172 181 184 181 197 206 209 215 221 222 226 235 246 256 265 267 265 263 261 261 263 262 258 251 243 237 232 231 230 230 229 223 214 211 211 210 214 218 218 220 223 226 236 245 250 257 277 313 328 308 283 270 254 235 112 101 94 91
267 256 204 198 209 222 235 239 247 257 248 241 241 239 241 246 249 258 268 270 282 295 245 214 224 250 252 187 176 185 184 186 195 203 207 214 222 226 237 246 253 263 280 286 284 284 277 273 274 264 247 240 237 231 226 225 226 228 227 217 205 205 208 210 214 217 217 220 220 221 232 237 237 244 261 277 288 291 284 278 274 274 275 276 53 73
259 254 187 195 228 231 235 240 241 246 251 253 244 241 247 251 252 260 263 249 252 269 257 239 241 243 239 213 198 187 179 183 187 191 200 219 227 231 249 257 257 266 289 305 302 308 308 298 287 264 239 235 234 227 222 221 224 229 225 211 200 201 205 209 213 214 216 218 216 221 229 231 233 241 254 266 272 275 276 272 270 271 273 274 285 317
265 261 237 235 242 224 224 247 246 240 249 259 256 255 262 256 251 259 264 251 243 255 251 245 246 243 241 224 195 193 198 197 196 194 200 213 219 226 245 252 255 266 293 320 319 322 330 327 303 266 241 236 231 225 222 222 225 228 220 204 199 201 204 206 209 210 213 215 217 222 225 226 232 241 253 263 266 268 268 265 265 263 264 266 266 273
265 267 259 247 243 235 235 250 251 246 243 248 258 271 274 260 253 252 255 260 261 263 261 254 253 251 251 235 194 197 209 205 199 196 195 197 200 216 233 236 247 267 295 316 320 325 332 337 324 283 251 247 242 232 227 227 227 221 208 200 200 203 204 204 207 209 210 214 218 220 220 224 231 240 252 261 262 262 262 263 264 262 260 260 259 261
259 266 266 252 236 242 251 247 248 249 239 238 253 262 260 259 262 260 256 257 260 262 267 266 264 258 253 238 203 203 213 207 197 194 190 187 198 216 221 222 240 266 291 304 311 316 321 334 334 308 268 264 265 246 233 227 222 212 203 200 201 204 205 205 206 208 210 214 216 216 218 225 231 237 245 251 256 258 261 262 263 264 263 260 258 258
261 260 264 260 245 243 250 246 246 256 250 239 246 251 249 249 256 265 263 258 261 267 270 268 266 263 258 231 203 208 212 203 195 197 191 187 209 227 229 236 249 262 282 294 300 302 305 317 330 324 286 254 249 252 240 225 217 212 207 206 205 204 205 206 208 209 211 214 214 215 222 228 232 239 242 243 247 251 257 261 261 264 267 265 263 261
243 247 259 262 255 249 253 254 252 263 266 257 257 258 255 251 252 259 260 256 260 265 269 274 276 275 269 212 213 226 215 202 198 197 187 190 216 231 238 255 267 272 280 289 290 288 291 294 301 313 298 260 241 238 240 234 231 232 225 218 213 209 206 209 211 211 212 214 214 219 226 230 234 240 242 243 244 245 249 256 258 261 265 268 269 268
230 235 257 261 259 258 262 267 261 260 264 264 265 266 266 265 261 261 266 270 270 267 266 272 275 276 267 217 229 236 220 204 199 194 186 198 220 232 243 260 272 280 282 282 282 279 278 280 279 278 282 272 251 241 236 234 239 251 255 249 236 221 212 213 214 212 212 213 216 222 227 232 237 240 240 242 244 244 244 247 251 255 259 263 268 269
240 240 257 260 263 264 262 261 258 257 263 262 259 258 259 261 262 266 272 279 280 271 265 268 268 257 239 218 217 218 209 201 199 194 193 207 224 235 251 266 271 274 275 274 274 274 270 270 270 266 262 259 257 252 242 236 238 245 249 253 256 247 233 227 223 218 217 217 220 225 231 237 243 244 242 241 242 242 244 245 247 249 250 251 257 263
246 242 254 260 264 264 257 252 247 246 252 259 259 254 252 257 265 268 271 274 271 264 261 265 268 261 230 198 194 194 197 201 201 195 200 220 238 246 256 265 263 262 265 267 268 268 266 265 264 262 257 248 246 247 246 241 237 238 239 242 248 251 249 245 239 230 226 226 230 234 237 242 247 246 245 245 242 238 238 242 245 248 250 251 255 260
259 253 255 261 262 260 255 254 255 259 263 268 270 259 249 253 264 269 271 266 261 263 264 262 265 270 252 201 206 203 205 211 208 202 208 230 246 249 253 258 256 255 256 259 264 266 264 261 259 258 255 252 248 243 241 241 238 236 237 238 240 243 246 247 245 239 236 238 243 244 244 250 254 252 250 251 249 242 238 242 246 249 254 257 258 260
255 255 255 257 259 263 269 275 286 298 290 280 281 271 254 252 259 264 265 260 261 269 268 262 264 272 265 245 232 224 220 219 215 214 217 228 243 251 254 256 257 255 253 255 260 263 262 259 256 253 253 255 257 255 250 245 243 241 242 244 242 240 241 243 244 242 239 241 245 248 249 252 255 255 256 260 261 255 250 251 253 254 256 257 256 257
250 255 253 254 258 262 268 274 279 283 280 276 276 272 263 259 259 259 260 261 267 272 267 263 268 272 268 261 252 239 227 224 226 231 229 225 239 253 257 257 256 252 251 253 254 255 257 257 256 255 256 259 262 263 262 259 257 255 254 255 253 248 245 244 242 240 238 240 244 247 247 245 243 243 247 254 262 260 255 255 261 265 263 259 256 256
250 256 257 257 261 262 263 268 271 270 270 269 268 268 266 264 261 259 260 264 266 266 266 271 276 275 275 274 263 247 237 239 241 240 238 231 234 247 254 255 255 252 253 256 255 254 254 255 258 261 264 266 267 267 267 267 266 266 264 263 261 258 255 251 246 241 240 241 243 245 245 246 248 249 249 254 265 268 262 257 262 268 267 264 260 257
254 258 260 261 266 268 266 267 268 266 268 268 265 264 264 263 261 260 261 263 265 264 267 273 275 272 271 271 264 254 249 252 250 244 242 235 227 233 245 253 257 255 256 261 264 264 263 261 263 266 267 268 268 267 268 269 270 269 269 267 266 264 260 258 255 253 250 248 248 249 251 254 257 258 257 259 265 267 262 258 259 262 263 265 264 259
256 260 264 269 272 272 270 271 270 267 268 269 266 263 262 261 260 260 261 262 265 266 268 272 272 269 269 271 267 261 258 260 261 257 251 243 234 234 242 253 256 249 244 256 265 269 270 269 267 266 267 268 267 266 267 267 268 269 268 268 267 266 265 263 261 258 256 255 254 254 255 256 257 257 258 257 258 258 257 256 256 257 258 261 263 262
255 263 271 275 272 270 270 272 271 270 271 269 265 262 260 259 259 260 261 262 262 265 270 271 269 269 273 275 270 264 262 261 260 258 255 250 246 245 244 245 247 242 238 251 265 270 270 269 268 266 266 265 263 262 263 263 264 265 266 267 268 270 271 271 269 266 264 262 260 259 257 256 256 255 255 255 254 254 254 254 254 255 256 258 260 261
253 264 272 272 269 270 271 271 274 276 272 267 264 261 259 259 260 260 260 261 261 265 267 268 269 273 276 276 273 269 266 263 260 259 258 255 249 244 243 243 246 243 237 245 260 268 268 269 268 266 264 261 259 258 258 258 258 259 261 264 267 270 273 273 273 273 272 269 266 264 261 259 259 258 257 257 257 256 257 257 258 258 259 260 261 261
255 263 268 268 268 271 274 276 277 272 261 260 266 263 256 255 259 261 261 261 263 264 259 257 262 266 267 273 277 274 271 268 264 258 254 248 244 244 249 253 251 241 231 237 253 262 267 268 268 267 265 260 257 257 256 255 254 256 258 261 265 268 270 270 270 271 270 268 266 265 263 261 261 261 261 260 259 260 260 260 261 262 262 263 264 264
258 261 263 263 265 270 274 272 267 260 256 259 265 263 253 252 257 262 264 263 264 265 260 256 260 264 267 274 278 274 272 271 266 262 257 253 255 261 262 257 247 231 221 233 249 256 263 267 266 266 266 261 258 255 252 252 253 255 257 260 263 266 266 267 268 266 265 263 261 260 258 257 257 258 259 260 260 261 262 263 264 265 265 266 266 267
255 258 260 260 261 265 266 257 251 261 267 265 261 257 255 260 265 267 268 267 265 266 266 266 268 272 273 275 277 277 276 273 267 263 258 255 260 262 256 244 236 228 222 235 250 254 259 263 264 265 264 260 257 252 249 250 252 253 257 260 262 264 266 267 267 265 264 262 259 257 255 255 255 255 257 259 261 262 265 266 268 269 269 269 269 269
252 254 256 258 257 259 260 256 258 267 270 263 255 247 243 251 259 262 267 271 267 266 268 269 269 272 275 278 280 279 278 276 267 255 251 258 261 253 237 222 227 233 234 244 253 256 257 258 260 263 262 258 254 250 249 250 251 253 256 259 261 265 267 269 268 267 266 265 263 261 260 258 259 259 260 261 263 265 267 269 271 271 272 272 272 272
248 248 250 254 254 254 259 262 262 264 265 258 247 245 251 257 256 260 273 277 269 264 269 274 277 278 279 280 281 280 279 279 269 247 240 256 271 250 231 222 225 230 232 240 253 257 255 256 257 259 260 257 253 250 249 250 252 254 257 259 263 267 270 270 269 266 264 264 264 264 263 262 262 264 265 266 267 269 270 272 273 274 274 274 274 274
246 243 244 250 252 251 253 258 258 259 266 268 251 257 273 265 252 262 282 276 256 246 251 268 281 280 276 277 282 283 278 277 274 246 232 233 252 284 248 229 226 228 229 237 254 256 253 257 259 258 258 255 252 251 251 253 255 256 257 259 263 267 270 270 267 263 261 260 261 262 262 262 262 264 267 271 274 277 279 280 281 280 279 278 277 276
241 240 241 244 248 248 249 255 258 257 262 267 263 270 293 279 262 267 282 272 252 249 257 278 288 281 276 277 282 281 272 272 281 266 247 245 256 276 268 255 246 242 240 248 259 260 257 257 258 257 254 252 252 253 254 256 257 258 259 261 264 268 270 269 267 263 261 260 260 260 260 261 263 264 267 272 276 281 284 287 288 286 284 282 280 277
240 241 243 245 248 249 250 255 259 260 262 267 270 274 288 291 280 268 266 268 267 273 288 297 296 289 283 279 278 274 266 261 259 255 253 257 265 266 264 266 265 260 257 255 256 259 260 258 257 257 255 255 255 255 256 257 259 260 261 264 267 270 271 271 268 265 263 263 264 264 264 264 265 266 269 272 276 280 285 288 289 288 285 281 278 275
252 249 246 244 248 253 254 257 261 262 259 265 278 286 281 275 275 270 264 266 275 287 293 291 290 290 284 277 275 272 267 264 259 251 249 258 268 270 266 266 267 266 264 262 257 257 259 259 257 257 258 259 259 260 261 262 262 263 265 267 269 270 270 270 268 267 267 269 270 270 269 267 267 269 270 271 275 280 284 287 289 286 281 276 272 269
258 256 252 247 248 254 255 256 260 263 260 270 291 303 283 266 272 277 276 277 286 293 292 287 288 288 280 271 268 268 268 268 265 259 254 258 266 272 269 267 268 265 261 259 258 258 259 260 258 258 259 260 261 262 263 264 265 266 267 267 267 268 267 267 267 267 269 271 273 274 273 271 272 273 272 273 277 281 284 286 285 281 275 270 266 261
259 255 259 260 259 257 252 248 253 270 283 296 303 299 290 284 283 285 286 287 288 288 288 287 285 284 282 276 272 270 269 270 270 269 267 267 269 272 272 271 271 267 260 258 258 258 258 259 260 262 263 263 264 265 265 265 265 265 265 266 266 266 265 265 266 267 269 271 272 273 273 273 273 274 274 278 282 284 284 284 280 274 270 264 260 258
256 254 264 270 271 270 264 263 275 287 293 298 296 289 290 293 291 291 291 290 289 287 287 286 281 278 279 279 276 275 274 273 272 271 271 272 270 269 271 273 274 272 269 266 264 263 261 261 262 264 264 264 266 267 267 267 267 266 267 267 267 267 266 267 268 269 270 271 271 272 273 273 273 274 276 281 283 284 284 280 273 268 264 259 257 258
266 267 271 274 276 280 277 274 280 285 287 290 290 290 293 293 291 292 290 287 286 285 283 282 280 278 279 277 276 277 276 275 274 273 272 274 272 269 269 271 272 273 274 272 271 271 269 268 268 268 267 267 268 269 269 269 269 269 269 268 268 268 268 268 269 269 270 270 271 272 272 273 273 274 277 279 281 281 279 272 266 262 259 257 257 257
272 269 266 270 275 279 281 280 282 285 286 289 291 291 292 290 289 291 289 287 286 284 283 281 279 279 280 278 277 278 278 278 278 277 276 277 275 273 272 272 272 273 274 273 273 274 273 274 274 273 272 271 271 271 271 271 271 271 271 271 271 270 269 270 270 270 271 270 270 271 271 272 273 274 275 276 277 274 269 265 263 261 256 254 255 253
280 282 283 282 276 275 280 284 286 286 287 289 291 291 293 293 291 288 286 285 285 284 284 284 281 280 281 279 278 278 278 277 277 276 277 277 276 275 274 274 274 273 272 271 272 273 272 272 272 273 272 271 271 271 271 272 272 272 271 272 272 270 269 271 271 271 271 271 271 272 273 273 273 271 268 267 267 264 262 262 261 256 250 247 248 247
282 288 291 288 281 280 285 291 296 296 293 290 289 288 288 286 283 281 280 283 286 287 286 284 283 282 281 280 279 278 278 278 277 275 275 274 274 275 274 273 272 271 271 270 270 270 270 270 271 271 270 269 269 268 268 269 269 269 269 269 269 268 268 269 269 269 269 270 271 273 271 268 267 264 261 259 259 259 261 260 255 249 244 242 244 246
277 282 290 291 288 284 285 291 297 296 291 288 288 288 285 284 284 286 287 287 287 287 286 285 285 284 282 281 280 279 279 279 279 277 274 272 271 271 271 271 270 270 271 270 269 269 270 271 272 271 270 270 269 268 268 268 267 267 266 265 265 267 266 264 264 265 266 268 269 269 266 263 261 259 257 257 258 258 260 257 252 246 242 240 241 242
269 275 284 287 286 284 283 287 290 288 287 289 290 289 288 289 291 292 292 289 287 286 286 286 285 284 283 281 281 281 281 280 278 276 274 273 271 270 271 272 272 272 271 270 270 270 271 271 271 270 269 269 267 266 266 267 267 268 266 265 264 265 262 260 259 261 262 263 263 263 263 262 259 258 257 257 257 258 259 256 249 241 236 235 238 241
Height
3103 3102 3101 3100 3098 3098 3098 3098 3097 3097 3097 3097 3098 3097 3095 3095 3094 3094 3096 3098 3101 3101 3099 3099 3100 3100 3101 3102 3104 3105 3107 3107 3107 3108 3108 3109 3110 3110 3111 3110 3107 3106 3108 3110 3111 3113 3114 3115 3116 3116 3117 3118 3120 3121 3122 3123 3124 3124 3125 3126 3126 3126 3126 3126 3126 3126 3125 3125 3124 3124 3123 3123 3122 3122 3122 3121 3121 3121 3122 3123 3123 3123 3124 3124 3124 3124
3101 3100 3099 3098 3096 3096 3097 3098 3098 3099 3099 3100 3099 3098 3096 3095 3094 3093 3095 3098 3101 3101 3099 3098 3100 3100 3100 3101 3103 3104 3105 3106 3106 3106 3106 3108 3109 3109 3110 3111 3109 3106 3105 3107 3109 3111 3112 3112 3114 3115 3116 3117 3118 3120 3121 3122 3123 3124 3124 3125 3125 3126 3126 3126 3125 3125 3125 3125 3124 3123 3123 3122 3122 3121 3121 3120 3121 3121 3121 3121 3122 3122 3122 3123 3123 3123
3100 3098 3097 3096 3096 3096 3097 3098 3099 3099 3100 3100 3099 3098 3096 3094 3094 3094 3095 3097 3100 3100 3099 3098 3099 3100 3099 3100 3102 3102 3103 3104 3104 3105 3105 3106 3107 3108 3109 3110 3110 3108 3105 3105 3106 3107 3108 3110 3113 3114 3115 3116 3117 3119 3120 3121 3122 3123 3123 3124 3124 3125 3125 3126 3125 3125 3125 3125 3124 3123 3122 3122 3121 3121 3120 3120 3120 3120 3120 3121 3121 3121 3122 3122 3122 3122
3097 3095 3095 3095 3096 3097 3098 3098 3099 3099 3099 3099 3098 3096 3094 3093 3092 3093 3095 3098 3099 3099 3098 3097 3097 3098 3098 3099 3100 3101 3101 3102 3102 3103 3104 3105 3106 3107 3108 3109 3109 3109 3109 3107 3106 3107 3107 3110 3112 3113 3114 3116 3116 3118 3118 3119 3120 3121 3122 3123 3124 3124 3125 3125 3125 3125 3125 3124 3124 3123 3122 3121 3121 3120 3120 3119 3120 3120 3120 3120 3120 3120 3121 3121 3121 3121
3096 3094 3093 3094 3095 3097 3098 3097 3098 3098 3097 3096 3096 3095 3093 3092 3092 3093 3095 3098 3098 3098 3097 3097 3096 3096 3096 3096 3096 3098 3099 3100 3100 3100 3101 3102 3103 3105 3106 3107 3108 3108 3109 3107 3106 3108 3109 3111 3112 3113 3114 3115 3115 3116 3117 3118 3119 3120 3121 3121 3122 3123 3124 3124 3125 3125 3124 3124 3123 3123 3122 3121 3120 3120 3119 3119 3119 3119 3119 3119 3119 3120 3120 3120 3120 3121
3094 3092 3093 3095 3096 3097 3097 3097 3097 3096 3095 3094 3094 3094 3093 3093 3093 3095 3096 3097 3097 3095 3095 3096 3095 3091 3091 3092 3093 3095 3097 3098 3098 3099 3100 3100 3101 3103 3103 3105 3105 3106 3107 3106 3106 3107 3108 3110 3112 3112 3113 3113 3114 3115 3116 3117 3118 3119 3119 3120 3121 3122 3123 3124 3124 3124 3124 3123 3123 3122 3122 3121 3120 3120 3119 3119 3119 3118 3119 3119 3119 3119 3119 3120 3120 3120
3092 3091 3093 3095 3096 3096 3096 3095 3095 3095 3094 3092 3091 3093 3094 3093 3094 3095 3095 3095 3094 3092 3092 3095 3094 3089 3088 3089 3091 3093 3095 3096 3097 3098 3099 3100 3101 3102 3103 3104 3105 3105 3105 3104 3105 3105 3106 3108 3110 3111 3112 3112 3113 3114 3115 3116 3117 3118 3118 3119 3120 3121 3122 3123 3123 3124 3124 3123 3123 3122 3121 3121 3120 3120 3120 3119 3119 3119 3119 3119 3119 3119 3119 3119 3119 3119
3091 3092 3093 3094 3095 3095 3095 3094 3093 3094 3094 3091 3090 3092 3093 3093 3093 3094 3094 3093 3092 3091 3090 3092 3093 3090 3087 3088 3090 3092 3094 3095 3096 3097 3098 3099 3100 3102 3103 3103 3104 3104 3103 3103 3104 3104 3105 3106 3108 3109 3110 3111 3112 3113 3114 3115 3116 3117 3117 3118 3119 3120 3121 3122 3122 3123 3123 3123 3122 3122 3121 3121 3120 3120 3120 3120 3119 3119 3119 3119 3119 3119 3119 3119 3119 3119
3091 3092 3092 3093 3093 3093 3092 3091 3091 3092 3092 3091 3090 3092 3092 3092 3092 3092 3093 3091 3091 3091 3088 3088 3091 3089 3085 3087 3089 3091 3092 3093 3094 3095 3097 3098 3099 3100 3101 3101 3101 3102 3102 3103 3103 3103 3104 3105 3106 3106 3108 3109 3109 3111 3112 3113 3114 3115 3116 3117 3118 3118 3120 3121 3121 3122 3122 3122 3122 3121 3121 3120 3120 3120 3120 3120 3119 3119 3119 3119 3118 3118 3118 3118 3118 3118
3091 3091 3091 3092 3092 3091 3091 3090 3089 3090 3091 3090 3090 3091 3091 3091 3091 3091 3091 3090 3090 3090 3087 3087 3089 3087 3083 3085 3087 3089 3091 3091 3092 3094 3096 3097 3098 3099 3098 3098 3099 3100 3101 3101 3102 3102 3102 3103 3104 3104 3105 3106 3107 3108 3110 3111 3112 3113 3114 3115 3116 3117 3118 3119 3121 3121 3121 3121 3121 3121 3120 3120 3120 3120 3120 3119 3119 3119 3118 3118 3118 3118 3118 3118 3118 3117
3090 3090 3090 3090 3090 3090 3090 3089 3088 3089 3090 3090 3090 3090 3090 3090 3090 3090 3090 3090 3089 3087 3085 3085 3087 3087 3084 3083 3085 3087 3088 3089 3090 3093 3095 3096 3097 3097 3096 3097 3097 3097 3098 3099 3099 3100 3100 3101 3102 3102 3102 3103 3104 3105 3107 3108 3109 3110 3111 3113 3114 3115 3117 3118 3119 3120 3120 3120 3120 3120 3120 3120 3120 3119 3119 3119 3119 3118 3118 3118 3118 3118 3118 3118 3117 3117
3089 3088 3088 3088 3088 3088 3089 3088 3087 3089 3089 3089 3089 3088 3089 3089 3089 3089 3089 3089 3088 3083 3082 3083 3085 3086 3084 3082 3083 3085 3087 3089 3090 3092 3094 3095 3095 3095 3095 3095 3095 3095 3096 3097 3097 3097 3098 3098 3099 3099 3100 3100 3100 3102 3104 3105 3106 3107 3109 3111 3112 3113 3115 3117 3118 3118 3119 3119 3120 3120 3120 3120 3119 3119 3119 3118 3118 3118 3118 3118 3118 3118 3118 3118 3117 3117
3087 3086 3086 3087 3087 3087 3088 3087 3086 3087 3088 3088 3087 3087 3088 3088 3088 3088 3086 3085 3084 3081 3081 3082 3084 3085 3083 3081 3083 3085 3087 3089 3090 3091 3092 3093 3093 3093 3093 3093 3094 3094 3095 3095 3095 3095 3096 3096 3096 3097 3097 3096 3097 3098 3100 3101 3103 3104 3106 3108 3109 3111 3113 3114 3116 3117 3117 3118 3119 3119 3119 3119 3119 3119 3118 3118 3118 3118 3118 3118 3118 3118 3118 3118 3118 3117
3084 3083 3084 3086 3085 3085 3086 3085 3084 3085 3087 3086 3085 3086 3087 3086 3087 3087 3083 3081 3080 3080 3081 3083 3084 3083 3081 3081 3083 3084 3086 3087 3088 3089 3090 3091 3092 3092 3092 3092 3093 3093 3093 3093 3094 3093 3093 3093 3093 3093 3093 3093 3092 3093 3095 3097 3100 3101 3103 3105 3107 3109 3110 3112 3114 3115 3115 3117 3117 3118 3118 3118 3119 3118 3118 3118 3118 3118 3118 3118 3118 3118 3118 3118 3118 3118
3081 3080 3082 3084 3084 3084 3084 3084 3083 3084 3085 3084 3084 3085 3084 3084 3085 3084 3081 3080 3079 3079 3082 3083 3083 3081 3079 3080 3082 3084 3085 3086 3087 3087 3089 3090 3090 3091 3091 3091 3091 3092 3092 3092 3091 3091 3091 3090 3090 3089 3089 3088 3088 3089 3091 3094 3096 3098 3100 3102 3104 3107 3108 3110 3111 3113 3114 3115 3116 3117 3117 3118 3118 3118 3118 3118 3118 3118 3118 3118 3118 3118 3118 3118 3118 3118
3081 3080 3081 3083 3083 3083 3084 3083 3083 3083 3083 3083 3082 3082 3082 3082 3083 3082 3080 3080 3080 3080 3080 3081 3081 3080 3078 3079 3082 3083 3084 3084 3085 3086 3087 3088 3089 3089 3089 3089 3090 3090 3090 3090 3089 3089 3088 3087 3086 3086 3085 3085 3085 3086 3088 3091 3093 3095 3097 3099 3102 3104 3107 3108 3109 3111 3112 3113 3114 3115 3116 3117 3117 3117 3117 3117 3117 3117 3117 3117 3117 3118 3118 3118 3118 3118
3082 3079 3079 3081 3082 3082 3083 3083 3083 3083 3081 3081 3081 3080 3080 3081 3082 3081 3079 3080 3081 3081 3078 3077 3077 3078 3078 3079 3080 3082 3083 3084 3084 3085 3086 3087 3087 3088 3088 3088 3088 3088 3088 3088 3088 3087 3086 3085 3084 3083 3083 3083 3084 3085 3086 3088 3091 3092 3095 3097 3099 3102 3104 3106 3107 3109 3110 3111 3112 3114 3115 3115 3116 3116 3116 3116 3116 3116 3116 3116 3116 3117 3117 3117 3118 3118
3082 3080 3080 3081 3081 3080 3081 3082 3082 3082 3081 3080 3079 3079 3079 3080 3080 3079 3078 3078 3079 3077 3074 3074 3074 3074 3076 3077 3078 3080 3082 3082 3084 3085 3085 3085 3086 3086 3086 3087 3087 3087 3087 3087 3086 3086 3085 3084 3083 3081 3082 3082 3083 3084 3085 3087 3088 3090 3092 3094 3096 3098 3101 3103 3105 3107 3108 3109 3111 3112 3113 3114 3114 3114 3114 3114 3114 3114 3114 3115 3115 3115 3116 3116 3116 3117
3083 3081 3079 3079 3080 3079 3080 3081 3080 3079 3079 3079 3079 3079 3079 3079 3078 3078 3078 3078 3077 3075 3073 3072 3072 3072 3073 3074 3075 3078 3080 3081 3082 3083 3084 3084 3085 3085 3085 3085 3085 3085 3085 3085 3085 3085 3084 3083 3082 3081 3081 3081 3082 3083 3084 3085 3087 3088 3090 3092 3093 3096 3098 3101 3102 3104 3105 3107 3108 3109 3111 3112 3112 3112 3112 3112 3112 3112 3113 3113 3113 3114 3114 3114 3115 3115
3082 3081 3078 3077 3079 3079 3079 3079 3078 3077 3077 3078 3078 3078 3078 3078 3077 3076 3076 3075 3075 3073 3072 3072 3070 3070 3071 3072 3074 3076 3077 3079 3081 3082 3083 3083 3083 3083 3083 3083 3084 3084 3084 3084 3084 3084 3084 3083 3082 3081 3081 3081 3082 3083 3083 3084 3086 3087 3088 3089 3091 3093 3095 3097 3099 3101 3103 3104 3106 3107 3108 3108 3109 3109 3109 3109 3110 3110 3111 3111 3111 3112 3112 3113 3113 3114
3082 3081 3078 3077 3078 3077 3077 3076 3076 3075 3075 3076 3076 3076 3076 3076 3076 3075 3074 3073 3072 3070 3070 3070 3069 3068 3070 3071 3072 3074 3076 3077 3079 3080 3082 3081 3081 3081 3082 3082 3082 3083 3083 3083 3083 3084 3083 3083 3082 3081 3081 3081 3083 3084 3084 3085 3086 3087 3087 3088 3089 3091 3093 3095 3096 3098 3100 3101 3103 3104 3104 3105 3106 3107 3107 3107 3108 3108 3109 3109 3109 3110 3110 3111 3111 3111
3080 3080 3078 3077 3076 3075 3074 3074 3074 3075 3074 3074 3074 3074 3074 3074 3075 3073 3070 3071 3072 3069 3068 3068 3067 3067 3069 3070 3072 3074 3075 3076 3078 3079 3080 3080 3079 3080 3080 3080 3081 3082 3082 3083 3083 3083 3083 3083 3082 3082 3082 3082 3082 3083 3084 3085 3086 3087 3087 3088 3088 3089 3090 3092 3093 3095 3097 3098 3100 3101 3101 3102 3103 3104 3105 3105 3106 3105 3106 3107 3108 3108 3108 3109 3108 3108
3078 3078 3077 3076 3074 3073 3072 3072 3073 3073 3074 3074 3073 3073 3074 3073 3073 3072 3069 3069 3071 3069 3068 3068 3066 3066 3068 3069 3072 3074 3074 3076 3077 3078 3079 3078 3077 3078 3079 3079 3080 3080 3081 3081 3082 3082 3082 3082 3082 3082 3082 3082 3082 3082 3083 3085 3085 3086 3086 3087 3088 3088 3088 3088 3089 3092 3093 3095 3096 3097 3098 3099 3101 3102 3103 3103 3103 3103 3103 3104 3105 3105 3105 3106 3106 3106
3076 3078 3077 3075 3073 3071 3070 3071 3071 3071 3073 3073 3072 3072 3073 3072 3073 3072 3071 3071 3070 3068 3068 3068 3065 3065 3067 3070 3072 3073 3074 3075 3076 3077 3077 3076 3076 3077 3077 3078 3078 3079 3079 3080 3080 3081 3081 3081 3081 3081 3081 3081 3081 3081 3082 3083 3084 3084 3085 3085 3086 3086 3087 3087 3088 3089 3090 3092 3094 3095 3096 3097 3099 3100 3100 3099 3099 3100 3099 3099 3101 3103 3103 3103 3104 3104
3075 3077 3076 3073 3071 3069 3068 3067 3068 3069 3071 3070 3070 3070 3071 3070 3072 3071 3071 3072 3069 3067 3069 3068 3064 3065 3067 3069 3071 3072 3073 3074 3074 3075 3075 3074 3075 3075 3075 3076 3076 3077 3077 3078 3078 3079 3079 3079 3079 3079 3079 3080 3080 3080 3080 3081 3081 3082 3082 3083 3084 3085 3086 3087 3087 3087 3088 3089 3091 3092 3093 3094 3095 3096 3096 3095 3094 3094 3095 3095 3097 3100 3100 3100 3101 3102
3074 3075 3075 3072 3070 3067 3066 3065 3065 3067 3069 3069 3069 3068 3068 3069 3071 3071 3071 3071 3067 3065 3067 3066 3063 3064 3067 3069 3070 3070 3072 3073 3073 3074 3073 3072 3073 3073 3074 3074 3075 3075 3075 3075 3076 3076 3077 3077 3077 3077 3078 3078 3078 3079 3079 3079 3079 3080 3080 3081 3082 3082 3083 3084 3085 3086 3086 3087 3088 3090 3090 3091 3092 3093 3092 3092 3091 3090 3089 3091 3094 3097 3098 3099 3099 3099
3073 3073 3073 3072 3070 3067 3065 3065 3065 3067 3068 3068 3068 3067 3067 3068 3069 3070 3071 3068 3066 3065 3064 3063 3063 3064 3066 3067 3068 3069 3070 3071 3072 3072 3072 3072 3070 3070 3072 3072 3073 3073 3073 3073 3074 3074 3074 3075 3075 3076 3076 3076 3077 3077 3078 3078 3078 3078 3078 3079 3079 3080 3081 3081 3082 3083 3085 3086 3087 3088 3089 3089 3090 3089 3088 3089 3089 3088 3088 3089 3092 3095 3096 3096 3096 3096
3072 3071 3070 3071 3069 3067 3067 3066 3066 3067 3066 3066 3067 3066 3067 3067 3067 3068 3068 3066 3067 3065 3060 3060 3064 3064 3064 3066 3067 3067 3069 3070 3070 3070 3071 3071 3069 3068 3069 3070 3071 3071 3071 3071 3071 3071 3072 3072 3072 3073 3074 3074 3075 3075 3076 3076 3077 3077 3077 3078 3079 3079 3080 3080 3081 3081 3082 3084 3085 3085 3086 3086 3087 3087 3086 3086 3087 3087 3088 3089 3091 3093 3094 3094 3094 3094
3070 3069 3068 3068 3067 3066 3066 3066 3065 3065 3065 3064 3065 3064 3065 3065 3064 3065 3065 3064 3066 3064 3059 3060 3063 3062 3062 3064 3065 3066 3067 3068 3068 3068 3069 3069 3067 3066 3067 3068 3068 3069 3069 3069 3068 3069 3069 3070 3070 3071 3071 3072 3072 3073 3073 3074 3075 3075 3076 3076 3077 3078 3078 3079 3080 3080 3080 3081 3082 3082 3083 3084 3084 3085 3085 3085 3086 3087 3088 3088 3089 3090 3091 3091 3091 3091
3067 3066 3066 3066 3065 3064 3064 3063 3063 3063 3063 3062 3062 3062 3062 3062 3062 3062 3062 3062 3063 3061 3059 3060 3060 3059 3060 3062 3063 3064 3065 3065 3065 3066 3066 3066 3065 3064 3065 3065 3066 3067 3067 3066 3066 3067 3067 3067 3068 3068 3068 3069 3069 3070 3071 3071 3072 3072 3073 3074 3075 3075 3076 3077 3077 3078 3078 3079 3079 3080 3080 3081 3081 3082 3082 3083 3083 3084 3085 3086 3086 3087 3088 3088 3089 3088
3065 3064 3064 3064 3063 3061 3061 3062 3061 3061 3061 3059 3059 3059 3059 3059 3059 3059 3059 3059 3059 3058 3058 3059 3057 3054 3057 3059 3060 3061 3062 3062 3062 3063 3063 3063 3063 3062 3062 3063 3064 3065 3064 3062 3062 3064 3065 3065 3065 3065 3066 3066 3067 3067 3068 3068 3069 3069 3070 3071 3071 3072 3073 3073 3074 3075 3076 3076 3077 3077 3078 3078 3078 3079 3079 3080 3080 3081 3082 3082 3083 3084 3084 3085 3085 3085
3064 3063 3063 3064 3061 3058 3059 3060 3059 3059 3058 3056 3054 3055 3056 3056 3055 3056 3056 3056 3056 3056 3056 3056 3053 3052 3055 3057 3056 3057 3058 3058 3059 3059 3060 3060 3060 3059 3060 3061 3061 3062 3061 3059 3058 3061 3062 3061 3062 3063 3063 3064 3064 3064 3065 3065 3066 3066 3066 3067 3067 3068 3069 3069 3070 3071 3072 3073 3073 3074 3075 3075 3075 3076 3076 3077 3077 3078 3078 3079 3079 3080 3080 3081 3081 3081
3062 3062 3062 3062 3059 3056 3057 3058 3057 3057 3055 3051 3050 3052 3053 3053 3053 3052 3052 3053 3054 3054 3054 3052 3050 3051 3053 3053 3052 3052 3054 3054 3055 3055 3056 3056 3056 3056 3057 3058 3058 3059 3058 3055 3055 3057 3058 3057 3058 3060 3061 3062 3061 3062 3062 3062 3062 3063 3063 3064 3064 3065 3065 3066 3066 3067 3068 3069 3069 3070 3071 3071 3072 3073 3073 3073 3074 3074 3075 3075 3075 3075 3076 3076 3076 3076
3061 3060 3060 3060 3057 3054 3055 3056 3056 3054 3050 3047 3048 3049 3050 3050 3050 3049 3049 3050 3051 3051 3049 3048 3047 3048 3049 3049 3049 3049 3049 3050 3051 3051 3051 3052 3053 3053 3054 3054 3055 3055 3054 3052 3052 3053 3053 3054 3056 3056 3058 3058 3058 3059 3060 3059 3059 3060 3060 3061 3061 3062 3063 3063 3064 3064 3065 3066 3066 3066 3067 3068 3068 3069 3069 3070 3070 3071 3071 3071 3071 3072 3072 3072 3072 3071
3059 3059 3059 3058 3056 3053 3054 3055 3053 3048 3045 3045 3047 3047 3047 3047 3048 3047 3047 3047 3048 3047 3045 3044 3045 3045 3046 3046 3046 3046 3045 3046 3047 3047 3048 3048 3048 3049 3050 3051 3051 3050 3049 3049 3049 3048 3049 3051 3053 3053 3054 3054 3055 3056 3057 3056 3056 3057 3057 3058 3059 3059 3060 3060 3061 3062 3062 3063 3063 3063 3064 3064 3065 3065 3066 3066 3067 3067 3067 3068 3068 3068 3068 3068 3068 3067
3056 3057 3056 3056 3054 3052 3051 3051 3048 3043 3043 3045 3045 3045 3045 3045 3046 3046 3045 3045 3045 3044 3042 3042 3042 3043 3043 3043 3044 3043 3042 3042 3043 3044 3044 3043 3043 3044 3047 3048 3048 3046 3046 3045 3044 3044 3045 3047 3049 3049 3050 3051 3051 3052 3053 3052 3053 3054 3054 3055 3056 3056 3057 3057 3058 3058 3059 3059 3059 3060 3060 3061 3062 3062 3062 3063 3063 3063 3064 3063 3063 3064 3064 3064 3064 3064
3054 3054 3054 3053 3051 3050 3048 3046 3044 3042 3043 3043 3043 3042 3043 3043 3044 3044 3042 3042 3042 3041 3040 3040 3040 3040 3040 3041 3041 3040 3039 3039 3041 3041 3040 3038 3038 3039 3041 3043 3043 3043 3042 3042 3040 3040 3042 3043 3044 3044 3045 3047 3048 3048 3049 3049 3050 3050 3051 3052 3052 3053 3054 3054 3055 3055 3055 3055 3056 3056 3056 3057 3057 3058 3058 3059 3059 3060 3060 3060 3059 3059 3059 3060 3060 3060
3051 3051 3052 3050 3049 3048 3047 3044 3042 3041 3040 3040 3040 3039 3039 3040 3041 3041 3041 3040 3040 3039 3038 3037 3037 3038 3039 3039 3039 3038 3037 3038 3039 3039 3038 3037 3036 3035 3036 3038 3039 3039 3040 3039 3038 3038 3038 3038 3039 3041 3042 3043 3044 3045 3045 3046 3046 3047 3048 3048 3049 3049 3050 3050 3051 3052 3052 3052 3052 3052 3052 3053 3053 3054 3054 3055 3055 3055 3056 3056 3056 3056 3056 3056 3056 3056
3049 3049 3049 3048 3047 3047 3046 3043 3041 3040 3039 3038 3038 3038 3038 3038 3039 3040 3041 3038 3036 3036 3035 3035 3036 3037 3037 3037 3036 3035 3036 3037 3037 3037 3036 3035 3035 3034 3034 3035 3036 3036 3036 3036 3036 3036 3034 3034 3035 3037 3038 3039 3040 3041 3041 3042 3042 3043 3043 3044 3044 3045 3046 3047 3047 3048 3048 3048 3048 3048 3049 3049 3049 3050 3050 3050 3051 3051 3051 3052 3052 3052 3052 3052 3052 3052
3046 3047 3047 3046 3044 3044 3044 3042 3040 3040 3038 3037 3037 3037 3038 3037 3038 3040 3040 3036 3033 3033 3033 3033 3034 3034 3033 3034 3033 3033 3034 3035 3035 3034 3032 3032 3033 3033 3033 3033 3033 3033 3034 3034 3035 3033 3030 3030 3032 3034 3034 3035 3036 3036 3037 3037 3038 3038 3039 3039 3040 3041 3042 3042 3043 3044 3044 3044 3044 3045 3045 3045 3046 3046 3046 3046 3047 3047 3047 3047 3047 3047 3047 3047 3047 3047
3044 3044 3044 3044 3043 3042 3042 3040 3039 3038 3036 3035 3035 3036 3037 3037 3038 3038 3036 3033 3032 3032 3032 3032 3032 3031 3031 3031 3031 3031 3031 3032 3031 3030 3030 3030 3030 3030 3031 3031 3031 3031 3031 3032 3031 3029 3027 3027 3029 3029 3030 3030 3031 3032 3032 3033 3033 3034 3034 3034 3035 3035 3037 3038 3038 3039 3039 3039 3040 3040 3041 3042 3042 3042 3042 3042 3042 3042 3043 3043 3043 3043 3043 3042 3042 3043
3043 3043 3042 3042 3041 3041 3040 3038 3037 3036 3035 3033 3033 3033 3035 3036 3036 3034 3032 3031 3030 3031 3031 3030 3030 3029 3028 3028 3028 3027 3027 3027 3027 3027 3027 3027 3027 3026 3026 3026 3027 3027 3027 3027 3026 3024 3023 3024 3025 3025 3026 3026 3027 3027 3028 3028 3028 3028 3029 3029 3030 3030 3031 3032 3033 3033 3034 3034 3034 3035 3036 3037 3037 3038 3038 3038 3038 3038 3038 3038 3038 3038 3038 3038 3038 3038
3041 3041 3040 3039 3039 3039 3038 3037 3035 3033 3032 3032 3032 3032 3033 3034 3032 3029 3028 3029 3029 3029 3029 3028 3028 3027 3026 3025 3024 3024 3023 3022 3023 3023 3023 3023 3022 3022 3022 3022 3022 3022 3022 3021 3021 3020 3020 3020 3020 3021 3021 3022 3022 3023 3023 3023 3023 3023 3024 3024 3025 3026 3026 3027 3027 3028 3028 3029 3029 3029 3029 3030 3032 3032 3033 3033 3034 3034 3034 3034 3033 3033 3033 3033 3032 3033
3040 3039 3038 3038 3037 3036 3035 3034 3034 3032 3031 3032 3032 3032 3032 3031 3029 3027 3027 3027 3027 3027 3026 3025 3025 3024 3023 3022 3021 3020 3019 3018 3019 3019 3019 3018 3018 3018 3018 3018 3018 3017 3016 3017 3017 3016 3016 3016 3016 3016 3016 3017 3017 3018 3018 3018 3018 3018 3019 3019 3020 3021 3021 3022 3022 3023 3023 3023 3023 3023 3024 3025 3026 3027 3027 3027 3027 3028 3029 3029 3028 3027 3028 3028 3028 3028
3038 3037 3037 3036 3035 3034 3033 3032 3031 3031 3031 3032 3031 3030 3030 3029 3028 3027 3025 3025 3024 3024 3024 3022 3021 3021 3020 3018 3017 3016 3015 3015 3015 3015 3015 3014 3014 3013 3013 3013 3013 3013 3012 3012 3012 3012 3012 3011 3011 3011 3011 3012 3012 3012 3012 3013 3012 3012 3013 3014 3015 3015 3016 3016 3016 3017 3017 3017 3018 3018 3019 3020 3021 3021 3021 3021 3021 3022 3022 3022 3022 3022 3022 3023 3023 3024
3036 3036 3036 3035 3034 3033 3032 3031 3031 3030 3030 3030 3029 3029 3028 3027 3026 3025 3024 3023 3022 3022 3021 3019 3017 3017 3016 3015 3013 3012 3011 3011 3010 3010 3010 3010 3009 3008 3008 3007 3007 3007 3007 3007 3007 3007 3007 3006 3005 3005 3005 3006 3006 3006 3006 3006 3006 3006 3007 3008 3009 3009 3009 3010 3010 3011 3011 3011 3012 3013 3014 3015 3015 3016 3016 3015 3016 3017 3016 3015 3015 3017 3017 3018 3019 3019
3034 3033 3033 3033 3033 3031 3030 3030 3030 3029 3028 3027 3027 3026 3026 3025 3024 3023 3022 3020 3019 3018 3016 3015 3014 3012 3011 3010 3009 3008 3007 3007 3006 3005 3005 3005 3004 3003 3003 3003 3002 3002 3002 3002 3002 3002 3001 3000 2999 2998 2999 2999 2999 2999 2999 2999 2999 2999 3000 3000 3001 3002 3002 3003 3004 3004 3004 3005 3006 3007 3008 3009 3010 3010 3010 3009 3010 3011 3009 3008 3009 3011 3012 3013 3014 3014
3033 3031 3031 3032 3031 3030 3028 3028 3028 3027 3026 3025 3025 3024 3023 3022 3021 3020 3018 3016 3015 3013 3012 3011 3010 3008 3007 3006 3006 3004 3002 3002 3002 3001 3000 3000 2999 2999 2999 2998 2998 2997 2996 2996 2997 2996 2995 2994 2993 2992 2992 2992 2992 2993 2993 2992 2992 2993 2993 2993 2994 2995 2995 2996 2997 2997 2998 2998 2999 3001 3002 3003 3003 3004 3004 3004 3004 3004 3003 3003 3004 3005 3007 3008 3008 3008
3031 3030 3030 3030 3028 3027 3026 3026 3025 3024 3023 3023 3022 3021 3020 3018 3016 3014 3013 3011 3010 3008 3007 3006 3004 3003 3002 3001 3000 2999 2997 2995 2995 2995 2995 2994 2994 2994 2993 2992 2992 2991 2990 2989 2989 2989 2987 2987 2986 2986 2985 2985 2986 2986 2986 2986 2986 2987 2988 2988 2988 2988 2989 2990 2990 2990 2991 2992 2993 2995 2996 2996 2997 2998 2998 2998 2997 2997 2998 2999 2999 3000 3002 3003 3003 3004
3030 3029 3029 3028 3026 3025 3025 3024 3023 3021 3019 3019 3018 3017 3015 3013 3011 3009 3008 3007 3006 3004 3002 3000 2999 2998 2997 2995 2994 2993 2990 2989 2989 2989 2988 2988 2988 2987 2987 2986 2985 2984 2983 2982 2982 2981 2981 2980 2980 2979 2979 2979 2979 2979 2979 2979 2980 2981 2982 2983 2983 2983 2983 2983 2984 2984 2985 2987 2988 2989 2990 2991 2992 2992 2992 2992 2992 2993 2994 2995 2995 2996 2998 2999 3000 3002
3028 3028 3027 3026 3024 3023 3022 3021 3020 3018 3015 3014 3014 3012 3010 3009 3007 3005 3004 3003 3001 2999 2998 2996 2994 2993 2992 2990 2989 2987 2985 2984 2983 2982 2981 2981 2981 2980 2980 2979 2978 2977 2976 2976 2976 2975 2975 2974 2973 2973 2972 2973 2973 2973 2972 2973 2973 2974 2975 2976 2977 2977 2977 2977 2978 2979 2980 2982 2983 2984 2985 2986 2987 2987 2987 2987 2987 2988 2990 2991 2992 2993 2994 2996 2997 2999